sat.trackr.live / text

‹ back to catalog

STARLINK-36964

NORAD 68184 · 2026-050T

PAYLOAD ACTIVE UNKNOWN

§ Identity

Operator
Country
US
Launch date
2026-03-14
Launch site
AFETR
Launch vehicle
Mass (kg)
RCS (m²)

Purposes: comms

External: N2YO · Heavens-Above · Gunter

§ Orbital elements

Epoch: 2026-05-24T15:00:03.500064Z

Period
93.57 min
Inclination
53.1586°
Eccentricity
0.0001071
Mean motion
15.38975805 rev/d
Perigee alt
448.4 km
Apogee alt
449.9 km
Semi-major
6,827.3 km
B*
5.3109e-4
RAAN
273.7239°
Arg perigee
82.9459°
Mean anomaly
277.1668°
Rev number
1,231

§ Raw data

STARLINK-369641 68184U 26050T   26144.62504051  .00020458  00000+0  53109-3 0  99992 68184  53.1586 273.7239 0001071  82.9459 277.1668 15.38975805 12311

JSON: /api/v1/satellites/68184 · /tle

For live sub-satellite position, see the globe view (requires WebGL).

§ Visibility from observer

Set your observer location to see the next 7 days of passes ≥ 10°. The values pass through the URL so the page stays shareable.

No JS? Fill the form by hand. The geolocation button needs JavaScript.